Location: Limoges
(45.8354°N, 1.2645°E)
Time: 17:13:00
(UTC+01:00)

ISS - Pass Details

Date: 18 November 2025
Orbit: 416 x 420 km, 51.6° (Epoch: 12 December)

Event Time Altitude Azimuth Distance (km) Brightness Sun altitude
Rises 18:56:33 0° 262° (W) 2,366 1.9 -16.6°
Reaches altitude 10° 18:58:43 10° 269° (W) 1,501 0.3 -16.9°
Maximum altitude 19:01:57 43° 342° (NNW) 606 -3.0 -17.5°
Enters shadow 19:02:46 35° 21° (NNE) 698 -2.9 -17.6°
